• In France
  • List of Countries
  • For 7 days
  • Water Temperature
  • Satellite Maps
  • Weather Map
  • Weather Widgets
  • user-avatar
    Login

    Hourly Weather Heredia

    Today, 27 May, Sunday

    Time Temperature Precipitation Wind Pressure Humidity
    00:00 +19°C° 0.6 mm 0 mps 662 mmHg 90%
    01:00 +18°C° 0.2 mm 0 mps 662 mmHg 90%
    02:00 +18°C° 0.2 mm 0 mps 662 mmHg 90%
    03:00 +18°C° 0.2 mm 0 mps 661 mmHg 91%
    04:00 +18°C° 0.3 mm 0 mps 661 mmHg 90%
    05:00 +18°C° 0.3 mm 0 mps 662 mmHg 90%
    06:00 +18°C° 0.3 mm 0 mps 662 mmHg 89%
    07:00 +19°C° 0.5 mm 0 mps 662 mmHg 86%
    08:00 +20°C° 0.5 mm 0 mps 663 mmHg 83%
    09:00 +23°C° 0.5 mm 1 mps 663 mmHg 80%
    10:00 +23°C° 0.9 mm 1 mps 663 mmHg 79%
    11:00 +24°C° 0.9 mm 1 mps 663 mmHg 78%
    12:00 +24°C° 0.9 mm 1 mps 663 mmHg 77%
    13:00 +24°C° 1.3 mm 1 mps 663 mmHg 79%
    14:00 +23°C° 1.3 mm 1 mps 662 mmHg 81%
    15:00 +23°C° 1.3 mm 1 mps 662 mmHg 84%
    16:00 +22°C° 1.2 mm 1 mps 662 mmHg 87%
    17:00 +19°C° 1.2 mm 0 mps 662 mmHg 89%
    18:00 +19°C° 1.2 mm 0 mps 662 mmHg 92%
    19:00 +19°C° 1.4 mm 0 mps 662 mmHg 92%
    20:00 +18°C° 1.4 mm 0 mps 663 mmHg 92%
    21:00 +18°C° 1.4 mm 0 mps 663 mmHg 91%
    22:00 +18°C° 0.8 mm 0 mps 663 mmHg 91%
    23:00 +18°C° 0.8 mm 0 mps 663 mmHg 90%

    Tomorrow, 28 May, Monday

    Time Temperature Precipitation Wind Pressure Humidity
    00:00 +18°C° 0.8 mm 0 mps 663 mmHg 90%
    01:00 +18°C° 0.2 mm 0 mps 662 mmHg 90%
    02:00 +18°C° 0.2 mm 0 mps 662 mmHg 90%
    03:00 +18°C° 0.2 mm 0 mps 661 mmHg 89%
    04:00 +18°C° 0.2 mm 0 mps 662 mmHg 89%
    05:00 +18°C° 0.2 mm 0 mps 662 mmHg 89%
    06:00 +18°C° 0.2 mm 0 mps 662 mmHg 89%
    07:00 +18°C° 0.9 mm 0 mps 662 mmHg 87%
    08:00 +19°C° 0.9 mm 0 mps 663 mmHg 86%
    09:00 +20°C° 0.9 mm 0 mps 664 mmHg 84%
    10:00 +19°C° 1.4 mm 0 mps 663 mmHg 86%
    11:00 +19°C° 1.4 mm 0 mps 663 mmHg 88%
    12:00 +19°C° 1.4 mm 0 mps 663 mmHg 89%
    13:00 +19°C° 1.3 mm 0 mps 663 mmHg 89%
    14:00 +21°C° 1.3 mm 1 mps 662 mmHg 88%
    15:00 +21°C° 1.3 mm 1 mps 662 mmHg 87%
    16:00 +19°C° 0.8 mm 0 mps 662 mmHg 89%
    17:00 +19°C° 0.8 mm 0 mps 662 mmHg 90%
    18:00 +18°C° 0.8 mm 0 mps 662 mmHg 92%
    19:00 +18°C° 0.3 mm 0 mps 662 mmHg 92%
    20:00 +18°C° 0.3 mm 0 mps 663 mmHg 93%
    21:00 +18°C° 0.3 mm 0 mps 663 mmHg 93%
    22:00 +18°C° 0.1 mm 0 mps 663 mmHg 93%
    23:00 +17°C° 0.1 mm 0 mps 663 mmHg 93%

    Day after tomorrow, 29 May, Tuesday

    Time Temperature Precipitation Wind Pressure Humidity
    00:00 +17°C° 0.1 mm 0 mps 663 mmHg 92%
    01:00 +17°C° 0 mm 0 mps 662 mmHg 92%
    02:00 +17°C° 0 mm 0 mps 662 mmHg 92%
    03:00 +17°C° 0 mm 0 mps 661 mmHg 92%
    04:00 +17°C° 0 mm 0 mps 661 mmHg 91%
    05:00 +18°C° 0 mm 0 mps 662 mmHg 90%
    06:00 +18°C° 0 mm 0 mps 662 mmHg 88%
    07:00 +22°C° 0 mm 1 mps 663 mmHg 82%
    08:00 +23°C° 0 mm 1 mps 664 mmHg 76%
    09:00 +25°C° 0 mm 1 mps 664 mmHg 70%
    10:00 +25°C° 0.3 mm 1 mps 664 mmHg 69%
    11:00 +26°C° 0.3 mm 1 mps 664 mmHg 69%
    12:00 +26°C° 0.3 mm 1 mps 664 mmHg 68%
    13:00 +25°C° 1.4 mm 1 mps 663 mmHg 73%
    14:00 +25°C° 1.4 mm 1 mps 662 mmHg 78%
    15:00 +24°C° 1.4 mm 1 mps 662 mmHg 83%
    16:00 +23°C° 1.5 mm 1 mps 662 mmHg 86%
    17:00 +22°C° 1.5 mm 1 mps 662 mmHg 89%
    18:00 +21°C° 1.5 mm 1 mps 662 mmHg 92%
    19:00 +21°C° 1.9 mm 1 mps 662 mmHg 92%
    20:00 +21°C° 1.9 mm 1 mps 663 mmHg 92%
    21:00 +21°C° 1.9 mm 1 mps 663 mmHg 92%
    22:00 +20°C° 2.2 mm 1 mps 663 mmHg 92%
    23:00 +20°C° 2.2 mm 1 mps 663 mmHg 91%

    30 May, Wednesday

    Time Temperature Precipitation Wind Pressure Humidity
    00:00 +20°C° 2.2 mm 1 mps 663 mmHg 91%
    01:00 +18°C° 1 mm 0 mps 662 mmHg 90%
    02:00 +18°C° 1 mm 0 mps 662 mmHg 90%
    03:00 +18°C° 1 mm 0 mps 661 mmHg 90%
    04:00 +18°C° 0.4 mm 0 mps 662 mmHg 90%
    05:00 +18°C° 0.4 mm 0 mps 662 mmHg 89%
    06:00 +18°C° 0.4 mm 0 mps 662 mmHg 88%
    07:00 +20°C° 0.3 mm 0 mps 663 mmHg 84%
    08:00 +23°C° 0.3 mm 1 mps 664 mmHg 79%
    09:00 +24°C° 0.3 mm 1 mps 664 mmHg 74%
    10:00 +25°C° 0.7 mm 1 mps 664 mmHg 73%
    11:00 +25°C° 0.7 mm 1 mps 664 mmHg 71%
    12:00 +26°C° 0.7 mm 1 mps 663 mmHg 69%
    13:00 +26°C° 1 mm 1 mps 663 mmHg 72%
    14:00 +25°C° 1 mm 1 mps 662 mmHg 75%
    15:00 +24°C° 1 mm 1 mps 661 mmHg 78%
    16:00 +23°C° 1.4 mm 1 mps 661 mmHg 83%
    17:00 +22°C° 1.4 mm 1 mps 661 mmHg 87%
    18:00 +19°C° 1.4 mm 0 mps 661 mmHg 92%
    19:00 +19°C° 1.6 mm 0 mps 662 mmHg 93%
    20:00 +19°C° 1.6 mm 0 mps 662 mmHg 93%
    21:00 +19°C° 1.6 mm 0 mps 663 mmHg 93%
    22:00 +19°C° 0.9 mm 0 mps 662 mmHg 93%
    23:00 +19°C° 0.9 mm 0 mps 662 mmHg 93%

    31 May, Thursday

    Time Temperature Precipitation Wind Pressure Humidity
    00:00 +18°C° 0.9 mm 0 mps 662 mmHg 92%
    01:00 +18°C° 0.3 mm 0 mps 662 mmHg 92%
    02:00 +18°C° 0.3 mm 0 mps 661 mmHg 92%
    03:00 +18°C° 0.3 mm 0 mps 661 mmHg 91%
    04:00 +18°C° 0.2 mm 0 mps 662 mmHg 91%
    05:00 +18°C° 0.2 mm 0 mps 662 mmHg 90%
    06:00 +18°C° 0.2 mm 0 mps 662 mmHg 89%
    07:00 +20°C° 0.2 mm 0 mps 663 mmHg 84%
    08:00 +21°C° 0.2 mm 0 mps 663 mmHg 79%
    09:00 +24°C° 0.2 mm 1 mps 664 mmHg 74%
    10:00 +24°C° 0.7 mm 1 mps 664 mmHg 73%
    11:00 +25°C° 0.7 mm 1 mps 663 mmHg 72%
    12:00 +25°C° 0.7 mm 1 mps 663 mmHg 71%
    13:00 +25°C° 1.2 mm 1 mps 662 mmHg 75%
    14:00 +24°C° 1.2 mm 1 mps 662 mmHg 79%
    15:00 +23°C° 1.2 mm 1 mps 661 mmHg 83%
    16:00 +22°C° 0.9 mm 1 mps 661 mmHg 87%
    17:00 +22°C° 0.9 mm 1 mps 661 mmHg 90%
    18:00 +19°C° 0.9 mm 0 mps 661 mmHg 93%
    19:00 +19°C° 0.2 mm 0 mps 662 mmHg 93%
    20:00 +19°C° 0.2 mm 0 mps 662 mmHg 93%
    21:00 +18°C° 0.2 mm 0 mps 662 mmHg 93%
    22:00 +18°C° 0 mm 0 mps 662 mmHg 92%
    23:00 +18°C° 0 mm 0 mps 662 mmHg 92%

    1 June, Friday

    Time Temperature Precipitation Wind Pressure Humidity
    00:00 +18°C° 0 mm 0 mps 661 mmHg 92%
    01:00 +18°C° 0.1 mm 0 mps 661 mmHg 92%
    02:00 +18°C° 0.1 mm 0 mps 661 mmHg 91%
    03:00 +18°C° 0.1 mm 0 mps 661 mmHg 91%
    04:00 +18°C° 0.1 mm 0 mps 661 mmHg 90%
    05:00 +18°C° 0.1 mm 0 mps 661 mmHg 90%
    06:00 +18°C° 0.1 mm 0 mps 662 mmHg 89%
    07:00 +19°C° 0.3 mm 0 mps 662 mmHg 84%
    08:00 +20°C° 0.3 mm 0 mps 663 mmHg 80%
    09:00 +22°C° 0.3 mm 0 mps 664 mmHg 75%
    10:00 +24°C° 0.5 mm 1 mps 663 mmHg 74%
    11:00 +25°C° 0.5 mm 1 mps 663 mmHg 72%
    12:00 +25°C° 0.5 mm 1 mps 663 mmHg 71%
    13:00 +25°C° 0.7 mm 1 mps 662 mmHg 73%
    14:00 +24°C° 0.7 mm 1 mps 662 mmHg 76%
    15:00 +24°C° 0.7 mm 1 mps 661 mmHg 79%
    16:00 +23°C° 0.6 mm 1 mps 661 mmHg 83%
    17:00 +20°C° 0.6 mm 0 mps 661 mmHg 87%
    18:00 +19°C° 0.6 mm 0 mps 661 mmHg 91%
    19:00 +19°C° 0.7 mm 0 mps 662 mmHg 91%
    20:00 +19°C° 0.7 mm 0 mps 662 mmHg 91%
    21:00 +19°C° 0.7 mm 0 mps 662 mmHg 92%
    22:00 +19°C° 0.7 mm 0 mps 662 mmHg 91%
    23:00 +18°C° 0.7 mm 0 mps 662 mmHg 91%
    Show more